CAPE
75 73 71 67 62 45 26 6 0 0 0 5 2 3 0 0 0 0 0 0 0 0 0 0 0 0 0 0 0 0 0 0 0 0 0 0 0 0 18 75 42 60 11 3
73 68 72 75 69 56 11 3 0 4 0 1 2 0 0 0 0 0 0 0 0 0 0 0 0 0 0 0 0 0 0 3 0 0 0 0 23 53 41 52 5 22 80 79
83 74 67 58 71 64 1 2 11 12 38 8 0 0 0 0 0 0 0 0 0 0 0 0 0 0 0 0 0 37 40 0 0 12 1 4 19 4 35 78 94 49 60 13
103 86 77 72 70 73 14 15 0 0 12 13 16 0 0 0 0 0 0 0 0 0 0 0 0 0 0 0 0 26 114 12 0 0 0 14 3 5 0 9 23 50 0 0
80 86 67 68 79 64 39 9 9 1 0 0 12 9 7 4 0 0 0 0 0 0 0 0 0 4 18 25 30 60 19 37 0 0 0 2 1 1 0 0 0 4 0 2
116 105 78 83 68 32 10 7 1 8 0 0 1 3 3 0 0 0 0 0 1 3 0 1 0 1 1 1 0 0 0 15 8 2 0 0 1 1 0 0 0 0 1 0
113 103 82 82 63 28 0 15 36 33 1 7 4 1 0 0 0 0 0 0 2 0 0 1 4 4 9 21 16 0 0 19 51 41 9 3 0 0 0 0 0 0 0 0
77 93 85 91 83 61 0 31 41 31 34 18 0 2 5 3 1 17 22 0 0 0 7 29 27 5 1 0 0 0 0 55 77 35 26 0 0 0 0 0 0 0 0 0
75 84 72 88 80 91 10 14 32 63 57 6 0 13 7 2 4 0 2 1 1 23 5 38 26 0 1 6 0 0 20 40 41 51 26 5 0 0 0 0 0 0 0 0
51 83 86 93 101 99 56 40 26 63 41 27 25 29 6 23 32 20 2 12 3 0 2 32 24 5 8 19 14 2 9 50 42 44 28 10 0 0 0 0 0 0 0 0
38 55 58 76 92 98 31 24 11 43 5 1 6 6 12 34 21 23 7 5 2 2 12 22 14 5 12 20 1 21 2 25 32 28 38 1 0 0 0 0 0 0 0 0
48 48 66 78 81 91 52 23 7 13 5 4 0 0 0 6 7 23 9 4 1 2 6 2 0 0 0 1 9 5 12 0 8 2 5 0 0 0 0 0 0 0 0 0
48 72 59 55 82 92 43 13 4 28 24 1 12 1 0 1 1 12 2 5 5 0 0 0 1 0 0 0 0 0 0 0 0 2 0 0 0 0 0 0 0 0 0 0
68 70 59 44 43 55 57 23 10 28 14 5 1 3 1 0 0 11 5 18 0 0 8 0 0 0 0 0 0 0 0 0 0 0 0 0 0 0 0 0 0 0 0 0
58 45 35 26 51 68 40 18 0 7 45 15 8 1 0 0 5 3 4 7 1 2 5 6 1 0 0 0 0 0 0 0 0 24 0 0 0 0 0 0 0 0 0 0
50 44 42 42 53 64 10 2 10 9 10 12 38 1 0 0 11 15 10 11 1 8 6 5 0 0 0 2 0 0 0 0 0 0 0 0 0 0 0 0 0 0 0 0
40 39 43 50 51 4 1 0 0 0 4 8 6 5 0 0 2 0 0 0 2 4 6 3 1 0 0 0 0 0 0 0 0 0 0 0 0 0 0 0 0 0 0 0
38 40 32 32 37 26 6 0 5 16 20 9 7 2 6 0 0 3 0 2 8 3 0 0 0 0 0 0 0 0 0 0 0 0 0 0 0 0 0 0 0 0 0 0
28 1 0 0 3 7 8 1 0 20 10 4 1 1 2 0 0 0 0 0 0 0 0 0 0 0 0 0 0 0 0 0 0 0 0 0 0 0 0 0 0 0 0 0
0 0 4 1 1 8 27 37 5 4 8 0 0 0 0 0 0 0 0 0 0 6 0 0 0 0 0 0 0 0 0 0 0 0 0 0 0 0 0 0 0 0 0 0
4 0 1 3 13 7 5 1 1 1 2 0 0 0 0 0 0 0 0 0 0 0 0 0 0 0 0 0 0 0 0 0 0 0 0 0 0 0 0 0 0 0 0 0
1 2 14 13 5 0 0 0 0 0 0 0 0 0 0 0 0 0 0 0 0 0 0 0 0 0 0 0 0 0 0 0 0 0 0 0 0 0 0 0 0 0 0 0
10 4 0 0 0 0 0 0 0 0 0 0 0 0 0 0 0 0 0 0 0 0 0 0 0 0 0 0 0 0 0 0 0 0 0 0 0 0 0 0 0 0 0 0
0 0 0 0 0 0 0 0 0 0 1 0 0 0 0 0 0 0 0 0 0 0 0 0 0 0 0 0 0 0 0 0 0 0 0 0 0 0 0 0 0 0 0 0
0 0 0 0 2 0 1 1 1 0 0 0 0 0 0 0 0 0 0 1 0 0 0 0 1 0 0 0 0 0 0 0 0 0 0 0 0 0 0 0 0 0 0 0
0 0 0 0 0 0 0 0 1 1 0 0 0 0 0 0 0 0 0 0 0 0 1 2 3 2 0 0 0 0 0 0 0 0 0 0 0 0 0 0 0 0 0 0
0 0 0 0 0 0 1 0 0 1 0 0 0 0 0 0 0 0 0 0 3 3 2 2 2 3 1 0 0 0 0 0 0 0 0 0 0 0 0 0 0 0 0 0
CIN
-10 -7 -9 -6 -2 -11 -18 -34 -0 -0 -0 -3 -14 -1 -0 -0 -0 -0 -0 -0 -0 -0 -0 -0 -0 -0 -0 -0 -0 -0 -0 -0 -0 -0 -0 -0 -0 -2 -7 -0 -2 -0 -11 -34
-24 -14 -9 -9 -2 -7 -31 -19 -0 -1 -5 -0 -0 -0 -0 -0 -0 -0 -0 -0 -0 -0 -0 -0 -0 -0 -0 -0 -0 -0 -0 -23 -0 -0 -0 -0 -28 -33 -19 -17 -4 -2 -0 -1
-15 -15 -16 -14 -3 -5 -89 -37 -0 -2 -2 -3 -0 -0 -0 -0 -0 -0 -0 -0 -0 -0 -0 -0 -0 -0 -0 -0 -0 -31 -20 -0 -0 -65 -1 -13 -12 -27 -33 -7 -0 -5 -0 -15
-8 -11 -15 -17 -8 -5 -33 -13 -0 -0 -0 -0 -0 -0 -0 -0 -0 -0 -0 -0 -0 -0 -0 -0 -0 -0 -0 -0 -0 -9 -7 -2 -0 -0 -0 -37 -7 -32 -0 -18 -14 -5 -0 -0
-8 -9 -10 -19 -13 -10 -5 -5 -13 -4 -0 -1 -0 -0 -0 -0 -0 -0 -0 -0 -0 -0 -0 -0 -0 -5 -9 -4 -16 -3 -24 -1 -0 -0 -0 -16 -0 -0 -0 -0 -0 -0 -0 -0
-10 -5 -15 -29 -19 -19 -15 -11 -16 -3 -0 -0 -0 -1 -0 -0 -0 -0 -0 -0 -0 -0 -0 -0 -1 -1 -0 -1 -0 -0 -0 -0 -0 -0 -0 -0 -0 -0 -0 -0 -0 -0 -0 -0
-8 -12 -14 -20 -19 -19 -10 -22 -14 -0 -4 -5 -0 -1 -0 -0 -0 -0 -0 -0 -0 -0 -0 -0 -0 -0 -0 -0 -0 -0 -0 -0 -0 -0 -8 -0 -0 -0 -0 -0 -0 -0 -0 -0
-10 -11 -11 -13 -12 -9 -23 -20 -1 -0 -0 -1 -1 -0 -1 -3 -0 -0 -0 -0 -0 -0 -0 -0 -0 -0 -0 -0 -0 -0 -0 -0 -0 -0 -0 -0 -0 -0 -0 -0 -0 -0 -0 -0
-5 -6 -11 -4 -8 -6 -19 -17 -25 -5 -0 -1 -3 -3 -0 -0 -0 -0 -0 -9 -5 -3 -0 -0 -0 -4 -1 -3 -0 -0 -3 -6 -1 -0 -0 -3 -4 -0 -0 -0 -0 -0 -0 -0
-6 -1 -1 -0 -1 -5 -2 -4 -21 -1 -0 -0 -4 -3 -3 -3 -0 -0 -1 -2 -1 -0 -0 -0 -0 -1 -16 -4 -1 -0 -0 -1 -1 -0 -0 -2 -0 -0 -0 -0 -0 -0 -0 -0
-3 -3 -4 -0 -1 -4 -5 -6 -12 -1 -1 -1 -7 -13 -1 -0 -1 -0 -0 -0 -0 -0 -0 -0 -0 -5 -9 -9 -3 -7 -2 -2 -0 -0 -0 -1 -0 -0 -0 -0 -0 -0 -0 -0
-4 -1 -4 -1 -4 -6 -5 -0 -8 -18 -1 -0 -0 -0 -0 -1 -0 -0 -0 -0 -0 -0 -0 -0 -0 -0 -0 -16 -2 -17 -1 -1 -12 -8 -18 -0 -0 -0 -0 -0 -0 -0 -0 -0
-2 -3 -6 -1 -0 -5 -2 -1 -5 -0 -0 -0 -0 -0 -0 -27 -5 -16 -0 -0 -0 -0 -0 -0 -10 -0 -0 -0 -0 -0 -0 -0 -0 -1 -0 -0 -0 -0 -0 -0 -0 -0 -0 -0
-9 -4 -1 -0 -2 -5 -3 -1 -5 -4 -0 -1 -1 -0 -0 -0 -0 -2 -3 -1 -0 -0 -4 -0 -0 -0 -0 -0 -3 -16 -0 -0 -0 -0 -0 -0 -0 -0 -0 -0 -0 -0 -0 -0
-3 -6 -3 -1 -2 -4 -5 -3 -3 -6 -0 -0 -0 -1 -0 -0 -18 -10 -1 -0 -2 -3 -0 -0 -0 -0 -0 -0 -0 -0 -0 -0 -0 -39 -0 -0 -0 -0 -0 -0 -0 -0 -0 -0
-4 -4 -3 -4 -8 -5 -1 -0 -0 -3 -4 -3 -0 -0 -0 -0 -8 -0 -0 -0 -6 -0 -0 -0 -0 -0 -0 -6 -0 -0 -0 -0 -0 -0 -0 -0 -0 -0 -0 -0 -0 -0 -0 -0
-7 -5 -4 -3 -3 -6 -0 -0 -0 -0 -4 -0 -2 -3 -0 -1 -1 -0 -0 -0 -0 -0 -0 -0 -0 -0 -0 -0 -0 -0 -0 -0 -0 -0 -0 -0 -0 -0 -0 -0 -0 -0 -0 -0
-4 -3 -5 -2 -1 -0 -0 -0 -0 -0 -0 -2 -4 -0 -0 -0 -0 -0 -0 -0 -0 -0 -0 -0 -0 -0 -0 -0 -0 -0 -0 -0 -0 -0 -0 -0 -0 -0 -0 -0 -0 -0 -0 -0
-0 -0 -0 -0 -1 -0 -0 -9 -0 -3 -0 -0 -0 -0 -0 -0 -0 -0 -0 -0 -0 -0 -0 -0 -0 -0 -0 -0 -0 -0 -0 -0 -0 -0 -0 -0 -0 -0 -0 -0 -0 -0 -0 -0
-0 -0 -0 -0 -0 -2 -0 -0 -0 -0 -0 -0 -0 -0 -0 -0 -0 -0 -0 -0 -0 -24 -0 -0 -0 -0 -0 -0 -0 -0 -0 -0 -0 -0 -0 -0 -0 -0 -0 -0 -0 -0 -0 -0
-0 -0 -0 -0 -0 -0 -0 -0 -0 -0 -0 -0 -0 -0 -0 -0 -0 -0 -0 -0 -0 -0 -0 -0 -0 -0 -0 -0 -0 -0 -0 -0 -0 -0 -0 -0 -0 -0 -0 -0 -0 -0 -0 -0
-0 -0 -0 -0 -0 -0 -0 -0 -0 -0 -0 -0 -0 -0 -0 -0 -0 -0 -0 -0 -0 -0 -0 -0 -0 -0 -0 -0 -0 -0 -0 -0 -0 -0 -0 -0 -0 -0 -0 -0 -0 -0 -0 -0
-0 -0 -0 -0 -0 -0 -0 -0 -0 -0 -0 -0 -0 -0 -0 -0 -0 -0 -0 -0 -0 -0 -0 -0 -0 -0 -0 -0 -0 -0 -0 -0 -0 -0 -0 -0 -0 -0 -0 -0 -0 -0 -0 -0
-0 -0 -0 -0 -0 -0 -0 -0 -0 -0 -0 -0 -0 -0 -0 -0 -0 -0 -0 -0 -0 -0 -0 -0 -0 -0 -0 -0 -0 -0 -0 -0 -0 -0 -0 -0 -0 -0 -0 -0 -0 -0 -0 -0
-0 -0 -0 -0 -0 -0 -0 -0 -0 -0 -0 -0 -0 -0 -0 -0 -0 -0 -0 -0 -0 -0 -0 -0 -0 -0 -0 -0 -0 -0 -0 -0 -0 -0 -0 -0 -0 -0 -0 -0 -0 -0 -0 -0
-0 -0 -0 -0 -0 -0 -0 -0 -0 -0 -0 -0 -0 -0 -0 -0 -0 -0 -0 -0 -0 -0 -0 -0 -0 -0 -0 -0 -0 -0 -0 -0 -0 -0 -0 -0 -0 -0 -0 -0 -0 -0 -0 -0
-0 -0 -0 -0 -0 -0 -0 -0 -0 -0 -0 -0 -0 -0 -0 -0 -0 -0 -0 -0 -0 -0 -0 -0 -0 -0 -0 -0 -0 -0 -0 -0 -0 -0 -0 -0 -0 -0 -0 -0 -0 -0 -0 -0
Wind_Speed
20 19 18 16 13 11 8 3 1 2 1 3 2 6 5 1 3 4 1 0 3 3 1 3 5 6 5 4 3 5 6 3 6 9 7 7 6 7 7 5 5 5 3 8
23 22 20 18 16 13 4 5 1 1 2 4 5 2 2 3 1 0 3 3 3 1 4 4 6 7 6 5 2 2 0 3 5 5 0 3 4 4 7 4 2 14 9 6
23 23 22 20 19 17 5 3 4 2 2 1 4 6 4 5 4 8 6 5 4 3 3 4 5 3 3 3 5 7 4 8 14 12 8 2 7 5 6 9 5 4 9 14
23 24 23 21 20 21 4 2 4 4 6 8 7 8 5 9 7 6 7 2 11 11 4 7 14 16 15 15 18 6 7 6 4 8 7 6 5 9 8 11 12 12 14 12
22 25 24 21 19 23 3 5 4 2 1 6 16 16 9 15 9 5 5 14 8 8 13 14 5 5 3 5 2 1 3 8 2 5 7 9 12 14 13 16 15 15 17 21
24 24 23 21 20 13 3 2 2 3 4 6 10 10 12 8 13 9 19 16 13 16 21 16 16 14 17 17 17 17 13 7 5 12 4 3 10 16 18 10 10 10 12 13
22 24 23 21 22 16 3 2 3 2 4 6 11 7 14 17 17 18 11 13 17 13 9 7 10 17 18 14 16 15 11 9 5 5 3 6 4 1 6 13 14 14 11 4
23 23 22 22 23 22 3 3 4 3 6 8 13 16 13 8 11 16 18 20 20 6 4 4 4 5 5 12 19 17 16 8 4 4 7 7 7 5 6 7 4 5 15 8
20 20 21 20 21 23 6 3 3 3 2 7 6 6 10 7 8 13 12 14 11 8 4 5 7 5 5 2 3 13 12 9 6 5 6 6 2 3 4 2 4 0 7 12
20 19 20 21 21 21 9 3 7 2 3 5 5 4 4 2 2 4 5 4 3 12 6 5 5 5 4 5 4 5 7 4 12 10 5 5 4 6 7 1 2 2 6 11
19 19 19 22 22 20 10 2 5 8 3 6 6 6 10 5 4 4 2 3 2 4 5 5 4 4 6 4 4 7 11 7 4 6 4 7 6 4 5 2 1 2 4 9
18 18 19 22 21 18 15 3 3 3 3 4 4 10 12 13 11 7 5 3 3 4 3 3 2 3 3 5 4 4 6 6 4 8 5 2 1 2 2 3 4 4 5 8
17 17 18 16 17 18 15 3 4 3 1 6 8 12 13 12 14 8 3 4 5 3 3 3 1 4 4 5 6 3 3 2 3 1 1 2 4 2 2 2 2 5 6 13
12 15 15 17 17 18 17 5 4 3 1 3 5 2 6 7 12 14 12 6 1 3 2 0 2 4 4 4 1 3 2 7 6 4 4 2 6 5 6 4 6 8 10 10
14 18 17 14 18 16 10 5 4 3 3 2 4 10 9 4 12 13 10 12 4 1 2 3 4 2 3 0 1 3 5 5 4 4 3 2 1 7 7 7 7 10 12 11
14 14 15 15 15 13 4 1 5 7 5 2 4 3 4 3 9 12 10 4 2 2 2 2 2 2 1 2 2 2 3 4 2 2 5 4 6 6 4 6 9 9 10 11
13 13 12 12 14 6 4 4 3 13 7 2 3 4 2 1 3 2 2 3 2 2 2 3 3 2 2 1 4 3 4 4 4 8 9 5 4 5 6 9 9 9 8 9
14 12 9 9 10 4 4 6 3 8 3 4 3 3 2 1 2 2 1 2 2 3 2 1 1 1 1 4 2 5 5 8 8 2 1 2 9 10 10 10 11 11 10 10
17 15 12 4 1 3 2 8 14 8 5 4 3 2 2 4 2 2 2 2 2 1 3 2 2 2 4 4 6 9 9 5 8 7 8 9 11 11 11 10 9 10 9 10
16 4 2 3 4 9 13 3 2 3 3 2 3 2 3 2 1 1 2 0 2 2 1 1 2 3 2 3 5 8 9 10 12 9 5 7 9 10 11 9 8 8 10 9
2 3 3 2 9 2 2 2 3 4 4 4 2 3 3 1 2 2 1 1 0 2 1 2 1 3 2 3 8 8 8 11 4 2 4 7 10 12 9 7 6 6 9 8
5 3 0 1 2 1 3 3 2 4 4 2 4 3 3 0 1 2 1 2 1 2 0 1 2 2 2 5 8 8 9 8 6 5 9 7 10 9 8 7 7 7 6 6
2 1 3 3 0 2 4 5 1 2 2 3 3 3 2 2 1 3 2 2 2 1 1 2 2 2 1 4 5 7 7 6 7 7 7 9 9 8 7 7 5 6 6 5
2 3 2 2 2 2 2 2 2 1 0 2 3 4 2 0 3 1 3 0 1 2 2 2 1 3 3 3 4 8 7 6 7 6 6 7 7 5 4 5 6 7 7 6
2 3 4 4 2 2 1 1 0 0 1 1 3 3 2 2 3 1 2 2 2 3 2 1 2 4 3 4 3 5 6 5 5 4 5 5 6 6 5 2 4 5 6 7
3 5 3 1 1 1 1 1 1 1 1 0 3 3 3 2 3 3 3 4 3 1 1 1 1 4 4 4 4 4 4 5 5 5 5 5 5 6 6 5 4 3 5 6
4 3 2 1 1 1 1 1 2 1 1 2 2 3 1 2 2 2 1 1 1 2 2 2 4 4 4 3 4 4 5 6 6 5 5 5 5 7 6 6 3 4 4 4
Wind_Direction
178 179 176 167 169 171 132 123 178 308 272 157 203 206 187 174 360 52 278 199 242 224 75 286 231 229 232 89 120 297 235 208 248 247 233 248 243 240 211 229 213 228 255 259
179 176 179 172 170 163 130 142 166 54 317 191 205 266 175 181 177 234 7 294 216 99 211 243 229 245 232 295 313 329 153 253 286 289 237 142 221 205 230 264 173 243 258 267
182 175 176 178 172 178 111 119 154 146 208 207 166 207 231 229 213 227 214 231 351 296 228 232 272 300 309 352 304 251 226 245 246 258 252 178 254 229 240 221 249 274 238 268
182 177 179 179 176 186 127 162 202 187 184 215 213 182 196 204 219 225 192 234 218 228 256 262 250 257 261 276 289 280 199 255 220 256 249 217 249 249 228 237 241 235 269 259
176 177 180 180 185 191 181 148 175 152 208 174 196 210 219 226 222 221 216 234 221 224 236 221 267 271 222 247 37 296 22 283 224 270 257 228 248 245 238 239 246 255 255 267
173 179 188 180 188 159 145 144 85 113 206 164 189 213 221 230 231 237 233 239 250 254 253 261 252 259 269 276 282 282 282 281 277 267 214 233 270 242 226 224 227 238 243 248
178 180 188 186 190 177 116 138 107 188 232 212 212 211 214 226 232 242 244 230 234 244 249 298 279 252 247 248 268 243 239 229 242 288 173 237 246 212 218 222 246 230 245 202
180 183 191 187 194 182 131 133 169 146 242 238 231 230 234 253 257 256 256 253 245 274 224 211 229 234 238 238 233 224 219 209 221 241 248 311 282 187 191 197 283 235 233 161
183 189 197 195 196 186 165 164 158 184 284 244 219 211 221 225 249 273 247 252 248 185 170 179 213 206 225 187 264 197 183 207 213 217 244 244 226 196 164 166 269 141 171 167
186 192 198 199 195 189 174 199 188 171 243 225 218 235 212 161 196 250 284 240 179 160 163 195 187 198 190 187 199 172 189 203 226 231 245 255 228 172 142 222 355 150 170 165
192 197 199 196 195 190 170 178 188 200 214 248 261 238 240 222 204 232 26 306 172 158 187 204 189 175 201 182 197 179 187 198 201 199 235 262 146 129 198 107 87 151 151 167
197 199 199 193 192 188 175 202 172 153 203 271 286 260 249 253 257 247 185 227 245 162 180 220 163 186 180 191 214 194 197 204 185 199 218 70 156 61 111 149 145 179 167 165
200 190 182 202 200 190 180 147 144 174 253 276 241 246 244 228 226 199 207 214 223 213 226 174 162 240 164 181 223 187 227 168 207 192 186 206 183 127 144 169 145 153 157 158
156 165 178 194 208 205 186 185 164 167 234 268 280 266 241 215 201 198 201 248 257 117 254 337 171 221 209 205 244 220 190 154 171 244 234 236 216 196 166 135 125 125 137 153
165 166 183 209 203 194 183 179 176 182 205 285 285 308 251 239 191 188 189 210 184 172 167 211 211 170 214 151 168 226 189 172 187 220 186 121 116 166 147 148 155 149 145 146
175 176 188 198 186 166 120 189 205 198 163 271 281 307 272 295 184 189 174 159 143 161 182 209 240 234 199 201 221 196 176 175 203 159 119 72 95 111 128 132 143 148 155 158
146 152 159 156 160 144 167 189 136 178 146 228 249 263 283 359 122 53 88 112 118 125 215 212 246 172 131 273 218 160 157 134 107 117 117 89 177 161 141 133 131 131 134 146
135 128 128 141 163 173 230 241 136 143 160 209 242 262 278 60 84 104 140 141 164 189 248 196 215 85 198 237 183 130 119 120 123 75 17 113 120 125 122 121 129 131 139 144
124 114 100 75 108 215 228 160 172 168 215 201 186 189 234 149 226 112 122 189 192 138 214 195 161 187 213 212 174 166 166 167 143 96 100 117 137 137 136 138 141 137 150 156
115 95 154 209 212 150 137 125 140 138 217 209 216 150 207 200 177 122 136 165 160 191 173 103 220 245 256 217 177 162 162 137 138 120 125 137 146 156 158 171 163 159 157 157
104 173 212 259 138 90 191 119 157 172 189 184 182 170 155 290 124 125 20 130 89 195 164 217 245 255 244 142 134 138 143 147 138 114 146 162 160 159 157 153 151 149 160 167
175 178 102 89 162 169 149 192 174 206 176 156 141 151 106 234 68 119 165 156 171 209 37 91 259 269 4 141 138 134 140 139 105 113 126 135 145 155 153 151 158 164 156 132
36 168 165 188 145 62 152 171 145 121 170 165 162 119 132 140 87 74 115 121 196 150 85 236 248 329 15 133 118 113 120 117 116 115 113 125 130 138 145 147 138 139 136 136
179 176 105 101 0 58 66 41 73 90 234 168 123 94 135 29 63 95 113 227 192 93 226 234 335 351 342 116 120 129 146 152 136 133 134 127 129 121 102 129 138 140 151 159
79 39 47 51 36 46 344 278 180 9 178 200 100 76 86 59 99 41 126 158 224 215 222 353 352 348 13 59 78 118 125 125 117 124 123 129 130 127 114 109 133 129 127 143
66 50 55 8 91 72 37 15 100 55 168 129 58 105 76 87 134 152 205 161 220 147 41 48 32 52 42 59 65 89 108 108 108 109 118 120 125 129 124 107 92 132 143 149
54 63 73 100 38 60 334 347 355 342 116 85 98 72 110 114 98 104 144 88 62 98 92 61 84 90 78 70 70 74 92 96 96 100 90 101 110 117 118 114 95 110 109 115